This is the latest recevied weather packets stored in our database for station/object ALTO-WX. If no packets are shown the sender has not sent any weather packets the latest 10 day(s).
| Time | Temp. | Humidity | Pressure | Rain* | Wind** | Luminosity | Snow |
|---|---|---|---|---|---|---|---|
| 1777673733 | 6.67° C | 54% | 986.5 hPa | 0 mm | - | - | - |
| 1777672861 | 6.67° C | 54% | 986.5 hPa | 0 mm | - | - | - |
| 1777671933 | 6.67° C | 55% | 986 hPa | 0 mm | - | - | - |
| 1777671047 | 6.67° C | 53% | 986.3 hPa | 0 mm | - | - | - |
| 1777670133 | 6.67° C | 53% | 986.3 hPa | 0 mm | - | - | - |
| 1777669260 | 6.67° C | 53% | 986.3 hPa | 0 mm | - | - | - |
| 1777668333 | 6.67° C | 53% | 985.5 hPa | 0 mm | - | - | - |
| 1777667451 | 7.22° C | 55% | 985.8 hPa | 0 mm | - | - | - |
| 1777666533 | 6.67° C | 55% | 985.8 hPa | 0 mm | - | - | - |
| 1777665660 | 6.67° C | 55% | 985.8 hPa | 0 mm | - | - | - |
| 1777664732 | 6.67° C | 57% | 985.6 hPa | 0 mm | - | - | - |
| 1777663850 | 6.67° C | 57% | 985.6 hPa | 0 mm | - | - | - |
| 1777662934 | 6.67° C | 57% | 985.6 hPa | 0 mm | - | - | - |
| 1777662056 | 6.67° C | 57% | 985.6 hPa | 0 mm | - | - | - |
| 1777661134 | 7.22° C | 60% | 985.2 hPa | 0 mm | - | - | - |
| 1777660249 | 6.67° C | 61% | 985.4 hPa | 0 mm | - | - | - |
| 1777659333 | 6.11° C | 61% | 985.4 hPa | 0 mm | - | - | - |
| 1777658462 | 6.11° C | 61% | 985.4 hPa | 0 mm | - | - | - |
| 1777657533 | 6.11° C | 63% | 986.4 hPa | 0 mm | - | - | - |
| 1777656649 | 6.11° C | 66% | 985.8 hPa | 0 mm | - | - | - |
| 1777655733 | 6.11° C | 66% | 985.8 hPa | 0 mm | - | - | - |
| 1777654860 | 6.11° C | 66% | 985.8 hPa | 0 mm | - | - | - |
| 1777653932 | 6.11° C | 58% | 984.6 hPa | 0 mm | - | - | - |
| 1777653053 | 6.11° C | 55% | 984.8 hPa | 0 mm | - | - | - |
| 1777652133 | 6.67° C | 55% | 984.9 hPa | 0 mm | - | - | - |
* Rain latest hour (hover to see other rain measurements)
** Current wind speed in m/s (hover to see current wind gust speed)